Regional Weather Roundup
Issued by NWS Memphis, TN

Home | Current Version | Previous Version | Text Only | Print | Product List | Glossary On
Versions: 1 2 3 4 5 6 7 8 9 10 11 12 13 14 15 16 17 18 19 20 21 22 23 24 25 26 27 28 29 30 31 32 33 34 35 36 37 38 39 40 41 42 43 44 45 46 47 48 49 50
000
ASUS44 KMEG 032110
RWRMEG
MEMPHIS CWA HOURLY WEATHER ROUNDUP
NATIONAL WEATHER SERVICE MEMPHIS TN
400 PM CDT SUN MAY 03 2015

...WEST TENNESSEE...

CITY           SKY/WX    TMP DP  RH WIND       PRES   REMARKS
MEMPHIS INTL   MOSUNNY   82  50  32 S9        30.06F
NWS MEMPHIS      N/A     82 N/A N/A MISG        N/A
JACKSON        SUNNY     80  46  30 S10G17    30.07F
LEXINGTON      SUNNY     79  48  34 S8        30.07F
DYERSBURG      MOSUNNY   82  43  24 SW10G16   30.07S
PARIS          SUNNY     79  46  31 VRB6      30.07F


...EASTERN ARKANSAS...

CITY           SKY/WX    TMP DP  RH WIND       PRES   REMARKS
JONESBORO      MOSUNNY   80  53  39 S14G20    30.02F
WEST MEMPHIS   MOSUNNY   81  52  36 S7        30.03F
BATESVILLE     MOSUNNY   82  55  39 SW10G16   30.01F
NEWPORT        SUNNY     84  53  34 S14G20    30.03F
WALNUT RIDGE   SUNNY     82  54  36 SW15      30.01F
BLYTHEVILLE    MOSUNNY   80  48  32 S12       30.05F
SEARCY         MOSUNNY   84  59  42 S10G18    30.03F
STUTTGART      MOSUNNY   84  55  37 S14       30.03F
PINE BLUFF     MOSUNNY   84  55  36 S9        30.02F
MONTICELLO     MOSUNNY   82  53  36 S7        30.03F


...NORTH MISSISSIPPI...

CITY           SKY/WX    TMP DP  RH WIND       PRES   REMARKS
TUPELO         MOSUNNY   81  49  32 VRB3      30.07F
OXFORD         LGT RAIN  81  45  28 SW5       30.09S
OLIVE BRANCH   PTSUNNY   79  52  38 S9        30.06F
TUNICA         MOSUNNY   82  50  32 SW7       30.05F
CLARKSDALE     MOSUNNY   84  52  32 S5        30.04F
CORINTH        MOSUNNY   79  48  34 VRB7G16   30.07F
GREENWOOD      SUNNY     82  53  36 S7        30.05F
STARKVILLE     FAIR      81  52  36 S7        30.08F


...SOUTHEAST MISSOURI...

CITY           SKY/WX    TMP DP  RH WIND       PRES   REMARKS
WEST PLAINS    MOSUNNY   79  52  38 S10G22    30.01F
POPLAR BLUFF   SUNNY     81  50  33 S16       30.00F
CAPE GIRARDEAU SUNNY     81  44  27 S18       30.01F


...NORTHWEST ALABAMA...

CITY           SKY/WX    TMP DP  RH WIND       PRES   REMARKS
MUSCLE SHOALS  SUNNY     79  48  33 S6        30.10F


...MIDDLE TENNESSEE...

CITY           SKY/WX    TMP DP  RH WIND       PRES   REMARKS
NASHVILLE      PTSUNNY   80  48  32 S6        30.08F
CLARKSVILLE    SUNNY     79  48  33 SW13      30.06F
COLUMBIA       SUNNY     81  50  34 SW8       30.08F


...WESTERN KENTUCKY...

CITY           SKY/WX    TMP DP  RH WIND       PRES   REMARKS
PADUCAH        MOSUNNY   80  46  30 S8        30.03F


...CENTRAL ARKANSAS...

CITY           SKY/WX    TMP DP  RH WIND       PRES   REMARKS
LITTLE ROCK    PTSUNNY   85  53  33 SW9       30.02F


SKY/WX REPORTED AS FAIR MEANS FEW OR NO CLOUDS BELOW
12 THOUSAND FEET.




USA.gov is the U.S. government's official web portal to all federal, state and local government web resources and services.